Content
SEND FEEDBACK

Daily
Averages
Monthly
Summary
France

LYON, FRANCE


Home > Europe > France
Elevation: 659 feet     Latitude: 45 43N     Longitude: 004 57E

WEATHER
 
SELECT A DAY
Number of Records: 153,079;   Date Range: 7/1/96 - 7/20/14
 
SHARE

PRINT THIS DATA

[ ← Previous Day ]
WEATHER ALMANAC - JANUARY 29, 2013
[ Next Day → ]
[ °C ]   °F
Weather ElementAverageHighLow
Temperature42.3 °F48.2 °F (3:00 pm)33.8 °F (12:30 am)
Dewpoint36.9 °F41 °F (3:00 pm)32 °F (12:30 am)
Humidity81.4 %100 % (1:00 am)66 % (11:00 am)
Barometer30.26 in30.27 in (12:30 am)30.24 in (1:30 am)
Wind Speed3.4 mph9.2 mph (10:00 am)
Weather ElementAverage
Visibility6 mi
Wind DirectionE (91.9 °)

Weather ElementTotal
Precipitation---
Heating Degree Days24 (Base 65)
Averaged from 47 records on January 29, 2013
WEATHER CONDITIONS BREAKOUT
WIND DIRECTION BREAKOUT
WEATHER BY HOUR - JANUARY 29, 2013
[ °C ]   °F
Local TimeTemperatureDewpointHumidityBarometerVisibilityWind DirectionWind SpeedGust SpeedPrecipitationEventsConditions
12:30 AM33.8 °F32.0 °F93 %30.27 in2.5 miCalmMist
1:00 AM33.8 °F33.8 °F100 %30.27 in3.7 miSE (140°)3.5 mph
1:30 AM35.6 °F33.8 °F93 %30.24 in5.0 miSSE (150°)3.5 mph
2:00 AM35.6 °F33.8 °F93 %30.24 in5.6 miVariable2.3 mph
2:30 AM35.6 °F35.6 °F100 %30.24 in6.2 miESE (120°)2.3 mph
3:00 AM37.4 °F35.6 °F93 %30.27 in6.2 miVariable2.3 mph
3:30 AM37.4 °F35.6 °F93 %30.27 in6.2 miEast (100°)2.3 mph
4:00 AM35.6 °F33.8 °F93 %30.27 in6.2 miEast (100°)2.3 mph
4:30 AM37.4 °F33.8 °F87 %30.24 in6.2 miSE (140°)4.6 mph
5:00 AM37.4 °F33.8 °F87 %30.27 in6.2 miESE (110°)3.5 mphOvercast
5:30 AM37.4 °F33.8 °F87 %30.27 in6.2 miESE (110°)2.3 mphOvercast
6:00 AM37.4 °F33.8 °F87 %30.27 in6.2 miVariable1.2 mphOvercast
6:30 AM37.4 °F33.8 °F87 %30.27 in6.2 miESE (120°)2.3 mphOvercast
7:00 AM37.4 °F33.8 °F87 %30.27 in6.2 miSE (130°)5.8 mphOvercast
7:30 AM37.4 °F33.8 °F87 %30.27 in6.2 miSW (220°)3.5 mphOvercast
8:00 AM37.4 °F33.8 °F87 %30.24 in6.2 miSE (130°)4.6 mph
8:30 AM39.2 °F33.8 °F81 %30.27 in6.2 miVariable3.5 mphOvercast
9:00 AM41.0 °F35.6 °F81 %30.27 in6.2 miCalm
9:30 AM42.8 °F33.8 °F70 %30.27 in6.2 miVariable2.3 mph
10:00 AM42.8 °F33.8 °F70 %30.24 in6.2 miSE (130°)9.2 mph
10:30 AM44.6 °F35.6 °F71 %30.24 in6.2 miSSE (150°)6.9 mph
11:00 AM44.6 °F33.8 °F66 %30.27 in6.2 miSouth (180°)4.6 mphOvercast
11:30 AM44.6 °F35.6 °F71 %30.27 in6.2 miSouth (170°)3.5 mphOvercast
12:00 PM46.4 °F35.6 °F66 %30.27 in6.2 miSSE (150°)4.6 mphOvercast
12:30 PM46.4 °F35.6 °F66 %30.27 in6.2 miSSE (160°)5.8 mphOvercast
1:00 PM46.4 °F35.6 °F66 %30.27 in6.2 miSSE (150°)5.8 mphMostly Cloudy
1:30 PM46.4 °F37.4 °F71 %30.24 in6.2 miSSE (150°)4.6 mphRainLight Rain
2:00 PM46.4 °F39.2 °F76 %30.24 in6.2 miVariable3.5 mphRainRain
2:30 PM46.4 °F39.2 °F76 %30.24 in6.2 miVariable2.3 mph
3:00 PM48.2 °F41.0 °F76 %30.24 in6.2 miVariable2.3 mph
3:30 PM48.2 °F41.0 °F76 %30.24 in6.2 miVariable2.3 mph
4:00 PM48.2 °F41.0 °F76 %30.24 in6.2 miVariable2.3 mphOvercast
4:30 PM48.2 °F41.0 °F76 %30.24 in6.2 miVariable1.2 mphRainLight Rain
5:00 PM48.2 °F41.0 °F76 %30.27 in6.2 miCalmOvercast
5:30 PM46.4 °F41.0 °F81 %30.24 in6.2 miESE (110°)4.6 mphRainLight Rain
6:00 PM46.4 °F41.0 °F81 %30.27 in6.2 miCalmRainLight Rain
6:30 PM46.4 °F41.0 °F81 %30.27 in6.2 miEast (90°)3.5 mphOvercast
7:00 PM46.4 °F41.0 °F81 %30.27 in6.2 miEast (100°)4.6 mphOvercast
7:30 PM44.6 °F41.0 °F87 %30.27 in6.2 miSSE (150°)3.5 mphOvercast
8:00 PM44.6 °F39.2 °F81 %30.27 in6.2 miSSE (160°)3.5 mphOvercast
8:30 PM44.6 °F39.2 °F81 %30.27 in6.2 miSSE (150°)4.6 mphOvercast
9:00 PM44.6 °F39.2 °F81 %30.27 in6.2 miSSE (150°)4.6 mphOvercast
9:30 PM44.6 °F39.2 °F81 %30.27 in6.2 miESE (120°)4.6 mphOvercast
10:00 PM44.6 °F39.2 °F81 %30.27 in6.2 miSE (130°)3.5 mphOvercast
10:30 PM44.6 °F39.2 °F81 %30.27 in6.2 miESE (110°)2.3 mphRainLight Rain
11:00 PM44.6 °F39.2 °F81 %30.27 in6.2 miESE (120°)4.6 mphMostly Cloudy
11:30 PM44.6 °F39.2 °F81 %30.27 in6.2 miESE (120°)4.6 mphOvercast
Hourly data recorded from LFLY, located miles away from Lyon, France







STORIES FROM OUR PARTNERS